Location: Harwich
(41.7160°N, 69.9939°W)
Time: 18:04:54
(UTC+01:00)

Explorer 7 - Pass Details

Date: 05 February 2023
Orbit: 478 x 657 km, 50.3° (Epoch: 19 March)

Event Time Altitude Azimuth Distance (km) Brightness Sun altitude
Rises 23:51:33 0° 292° (WNW) 2,895 11.5 -10.0°
Reaches altitude 10° 23:54:17 10° 276° (W) 2,014 11.0 -10.5°
Maximum altitude 23:57:44 21° 228° (SW) 1,447 9.8 -11.1°
Drops below altitude 10° 00:01:16 10° 179° (S) 2,053 9.9 -11.8°
Sets 00:04:05 0° 164° (SSE) 2,970 10.5 -12.3°
